Year,Month,Day,Hour,Minute,Value (Times are PST for temperature in C)
2015,06,22,00,00,20.00
2015,06,22,00,01,20.00
2015,06,22,00,02,20.00
2015,06,22,00,03,20.00
2015,06,22,00,04,19.90
2015,06,22,00,05,20.00
2015,06,22,00,06,20.00
2015,06,22,00,07,20.00
2015,06,22,00,08,20.10
2015,06,22,00,09,20.10
2015,06,22,00,10,20.10
2015,06,22,00,11,20.10
2015,06,22,00,12,20.10
2015,06,22,00,13,20.10
2015,06,22,00,14,20.10
2015,06,22,00,15,20.10
2015,06,22,00,16,20.10
2015,06,22,00,17,20.10
2015,06,22,00,18,20.10
2015,06,22,00,19,20.10
2015,06,22,00,20,20.10
2015,06,22,00,21,20.10
2015,06,22,00,22,20.10
2015,06,22,00,23,20.10
2015,06,22,00,24,20.10
2015,06,22,00,25,20.10
2015,06,22,00,26,20.10
2015,06,22,00,27,20.20
2015,06,22,00,28,20.20
2015,06,22,00,29,20.20
2015,06,22,00,30,20.20
2015,06,22,00,31,20.20
2015,06,22,00,32,20.20
2015,06,22,00,33,20.20
2015,06,22,00,34,20.20
2015,06,22,00,35,20.30
2015,06,22,00,36,20.30
2015,06,22,00,37,20.20
2015,06,22,00,38,20.20
2015,06,22,00,39,20.20
2015,06,22,00,40,20.10
2015,06,22,00,41,20.00
2015,06,22,00,42,19.90
2015,06,22,00,43,19.70
2015,06,22,00,44,19.60
2015,06,22,00,45,19.50
2015,06,22,00,46,19.30
2015,06,22,00,47,19.20
2015,06,22,00,48,19.00
2015,06,22,00,49,18.90
2015,06,22,00,50,18.80
2015,06,22,00,51,18.70
2015,06,22,00,52,18.50
2015,06,22,00,53,18.40
2015,06,22,00,54,18.30
2015,06,22,00,55,18.30
2015,06,22,00,56,18.20
2015,06,22,00,57,18.20
2015,06,22,00,58,18.10
2015,06,22,00,59,18.00
2015,06,22,01,00,17.90
2015,06,22,01,01,17.80
2015,06,22,01,02,17.70
2015,06,22,01,03,17.60
2015,06,22,01,04,17.50
2015,06,22,01,05,17.40
2015,06,22,01,06,17.40
2015,06,22,01,07,17.30
2015,06,22,01,08,17.20
2015,06,22,01,09,17.20
2015,06,22,01,10,17.10
2015,06,22,01,11,17.10
2015,06,22,01,12,17.00
2015,06,22,01,13,16.90
2015,06,22,01,14,16.90
2015,06,22,01,15,16.80
2015,06,22,01,16,16.80
2015,06,22,01,17,16.80
2015,06,22,01,18,16.80
2015,06,22,01,19,16.80
2015,06,22,01,20,16.80
2015,06,22,01,21,17.00
2015,06,22,01,22,17.10
2015,06,22,01,23,17.20
2015,06,22,01,24,17.30
2015,06,22,01,25,17.30
2015,06,22,01,26,17.20
2015,06,22,01,27,17.20
2015,06,22,01,28,17.10
2015,06,22,01,29,17.10
2015,06,22,01,30,17.00
2015,06,22,01,31,17.00
2015,06,22,01,32,16.90
2015,06,22,01,33,16.80
2015,06,22,01,34,16.80
2015,06,22,01,35,16.80
2015,06,22,01,36,16.80
2015,06,22,01,37,16.70
2015,06,22,01,38,16.70
2015,06,22,01,39,16.70
2015,06,22,01,40,16.60
2015,06,22,01,41,16.70
2015,06,22,01,42,16.70
2015,06,22,01,43,16.70
2015,06,22,01,44,16.70
2015,06,22,01,45,16.70
2015,06,22,01,46,16.80
2015,06,22,01,47,16.80
2015,06,22,01,48,16.80
2015,06,22,01,49,16.80
2015,06,22,01,50,16.80
2015,06,22,01,51,16.70
2015,06,22,01,52,16.80
2015,06,22,01,53,16.80
2015,06,22,01,54,16.80
2015,06,22,01,55,16.80
2015,06,22,01,56,16.70
2015,06,22,01,57,16.70
2015,06,22,01,58,16.50
2015,06,22,01,59,16.50
2015,06,22,02,00,16.40
2015,06,22,02,01,16.40
2015,06,22,02,02,16.30
2015,06,22,02,03,16.20
2015,06,22,02,04,16.20
2015,06,22,02,05,16.00
2015,06,22,02,06,16.00
2015,06,22,02,07,15.90
2015,06,22,02,08,15.80
2015,06,22,02,09,15.80
2015,06,22,02,10,15.70
2015,06,22,02,11,15.70
2015,06,22,02,12,15.70
2015,06,22,02,13,15.60
2015,06,22,02,14,15.50
2015,06,22,02,15,15.50
2015,06,22,02,16,15.50
2015,06,22,02,17,15.50
2015,06,22,02,18,15.50
2015,06,22,02,19,15.40
2015,06,22,02,20,15.40
2015,06,22,02,21,15.40
2015,06,22,02,22,15.50
2015,06,22,02,23,15.50
2015,06,22,02,24,15.60
2015,06,22,02,25,15.60
2015,06,22,02,26,15.70
2015,06,22,02,27,15.70
2015,06,22,02,28,15.70
2015,06,22,02,29,15.70
2015,06,22,02,30,15.70
2015,06,22,02,31,15.60
2015,06,22,02,32,15.50
2015,06,22,02,33,15.40
2015,06,22,02,34,15.40
2015,06,22,02,35,15.30
2015,06,22,02,36,15.20
2015,06,22,02,37,15.20
2015,06,22,02,38,15.10
2015,06,22,02,39,15.00
2015,06,22,02,40,14.90
2015,06,22,02,41,14.80
2015,06,22,02,42,14.70
2015,06,22,02,43,14.60
2015,06,22,02,44,14.60
2015,06,22,02,45,14.50
2015,06,22,02,46,14.40
2015,06,22,02,47,14.40
2015,06,22,02,48,14.30
2015,06,22,02,49,14.30
2015,06,22,02,50,14.30
2015,06,22,02,51,14.30
2015,06,22,02,52,14.30
2015,06,22,02,53,14.20
2015,06,22,02,54,14.20
2015,06,22,02,55,14.20
2015,06,22,02,56,14.20
2015,06,22,02,57,14.20
2015,06,22,02,58,14.20
2015,06,22,02,59,14.20
2015,06,22,03,00,14.20
2015,06,22,03,01,14.20
2015,06,22,03,02,14.20
2015,06,22,03,06,14.10
2015,06,22,03,07,14.10
2015,06,22,03,08,14.00
2015,06,22,03,09,14.00
2015,06,22,03,10,13.90
2015,06,22,03,11,13.90
2015,06,22,03,12,13.90
2015,06,22,03,13,13.90
2015,06,22,03,14,14.00
2015,06,22,03,15,14.00
2015,06,22,03,16,14.00
2015,06,22,03,17,14.00
2015,06,22,03,18,14.00
2015,06,22,03,19,14.00
2015,06,22,03,20,14.00
2015,06,22,03,21,14.00
2015,06,22,03,22,13.90
2015,06,22,03,23,13.90
2015,06,22,03,24,13.90
2015,06,22,03,25,13.90
2015,06,22,03,26,13.90
2015,06,22,03,27,13.90
2015,06,22,03,28,14.00
2015,06,22,03,29,14.00
2015,06,22,03,30,14.00
2015,06,22,03,31,14.00
2015,06,22,03,32,14.00
2015,06,22,03,33,13.90
2015,06,22,03,34,13.90
2015,06,22,03,35,13.90
2015,06,22,03,36,13.80
2015,06,22,03,37,13.80
2015,06,22,03,38,13.70
2015,06,22,03,39,13.70
2015,06,22,03,40,13.70
2015,06,22,03,41,13.60
2015,06,22,03,42,13.60
2015,06,22,03,43,13.60
2015,06,22,03,44,13.60
2015,06,22,03,45,13.60
2015,06,22,03,46,13.60
2015,06,22,03,47,13.60
2015,06,22,03,48,13.60
2015,06,22,03,49,13.60
2015,06,22,03,50,13.60
2015,06,22,03,51,13.60
2015,06,22,03,52,13.60
2015,06,22,03,53,13.60
2015,06,22,03,54,13.60
2015,06,22,03,55,13.60
2015,06,22,03,56,13.50
2015,06,22,03,57,13.50
2015,06,22,03,58,13.40
2015,06,22,03,59,13.40
2015,06,22,04,00,13.40
2015,06,22,04,01,13.40
2015,06,22,04,02,13.40
2015,06,22,04,03,13.40
2015,06,22,04,04,13.40
2015,06,22,04,05,13.40
2015,06,22,04,06,13.40
2015,06,22,04,07,13.40
2015,06,22,04,08,13.40
2015,06,22,04,09,13.40
2015,06,22,06,07,12.90
2015,06,22,06,08,12.90
2015,06,22,06,09,12.90
2015,06,22,06,10,12.90
2015,06,22,06,11,12.90
2015,06,22,06,12,12.90
2015,06,22,06,13,12.90
2015,06,22,06,14,12.90
2015,06,22,06,15,13.00
2015,06,22,06,16,13.00
2015,06,22,06,17,13.10
2015,06,22,06,18,13.10
2015,06,22,06,19,13.10
2015,06,22,06,20,13.10
2015,06,22,06,21,13.20
2015,06,22,06,22,13.20
2015,06,22,06,23,13.20
2015,06,22,06,24,13.30
2015,06,22,06,25,13.40
2015,06,22,06,26,13.40
2015,06,22,06,27,13.50
2015,06,22,06,28,13.50
2015,06,22,06,29,13.60
2015,06,22,06,30,13.70
2015,06,22,06,31,13.80
2015,06,22,06,32,13.80
2015,06,22,06,33,13.90
2015,06,22,06,34,14.00
2015,06,22,06,35,14.10
2015,06,22,06,36,14.10
2015,06,22,06,37,14.20
2015,06,22,06,38,14.30
2015,06,22,06,39,14.30
2015,06,22,06,40,14.40
2015,06,22,06,41,14.50
2015,06,22,06,42,14.60
2015,06,22,06,43,14.70
2015,06,22,06,44,14.80
2015,06,22,06,45,14.90
2015,06,22,06,46,15.00
2015,06,22,06,47,15.10
2015,06,22,06,48,15.20
2015,06,22,06,49,15.30
2015,06,22,06,50,15.40
2015,06,22,06,51,15.40
2015,06,22,06,52,15.40
2015,06,22,06,53,15.40
2015,06,22,06,54,15.50
2015,06,22,06,55,15.50
2015,06,22,06,56,15.60
2015,06,22,06,57,15.70
2015,06,22,06,58,15.90
2015,06,22,06,59,16.00
2015,06,22,07,00,16.20
2015,06,22,07,01,16.30
2015,06,22,07,02,16.20
2015,06,22,07,03,16.20
2015,06,22,07,04,16.20
2015,06,22,07,05,16.20
2015,06,22,07,06,16.20
2015,06,22,07,07,16.30
2015,06,22,07,08,16.30
2015,06,22,07,09,16.40
2015,06,22,07,10,16.40
2015,06,22,07,11,16.50
2015,06,22,07,12,16.50
2015,06,22,07,13,16.60
2015,06,22,07,14,16.60
2015,06,22,07,15,16.70
2015,06,22,07,16,16.70
2015,06,22,07,17,16.80
2015,06,22,07,18,17.00
2015,06,22,07,19,17.10
2015,06,22,07,20,17.10
2015,06,22,07,21,17.20
2015,06,22,07,22,17.30
2015,06,22,07,23,17.40
2015,06,22,07,24,17.40
2015,06,22,07,25,17.50
2015,06,22,07,26,17.50
2015,06,22,07,27,17.60
2015,06,22,07,28,17.70
2015,06,22,07,29,17.70
2015,06,22,07,30,17.70
2015,06,22,07,31,17.70
2015,06,22,07,32,17.70
2015,06,22,07,33,17.80
2015,06,22,07,34,17.80
2015,06,22,07,35,17.90
2015,06,22,07,36,18.00
2015,06,22,07,37,18.10
2015,06,22,07,38,18.20
2015,06,22,07,39,18.30
2015,06,22,07,40,18.30
2015,06,22,07,41,18.30
2015,06,22,07,42,18.30
2015,06,22,07,43,18.30
2015,06,22,07,44,18.20
2015,06,22,07,45,18.20
2015,06,22,07,46,18.10
2015,06,22,07,47,18.10
2015,06,22,07,48,18.10
2015,06,22,07,49,18.10
2015,06,22,07,50,18.10
2015,06,22,07,51,18.10
2015,06,22,07,52,18.20
2015,06,22,07,53,18.20
2015,06,22,07,54,18.30
2015,06,22,07,55,18.40
2015,06,22,07,56,18.50
2015,06,22,07,57,18.70
2015,06,22,07,58,18.80
2015,06,22,07,59,18.90
2015,06,22,08,00,18.90
2015,06,22,08,01,18.90
2015,06,22,08,02,18.90
2015,06,22,08,03,18.90
2015,06,22,08,04,19.00
2015,06,22,08,05,19.10
2015,06,22,08,06,19.10
2015,06,22,08,07,19.20
2015,06,22,08,08,19.20
2015,06,22,08,09,19.30
2015,06,22,08,10,19.30
2015,06,22,08,11,19.30
2015,06,22,08,12,19.30
2015,06,22,08,13,19.40
2015,06,22,08,14,19.40
2015,06,22,08,15,19.50
2015,06,22,08,16,19.60
2015,06,22,08,17,19.70
2015,06,22,08,18,19.80
2015,06,22,08,19,19.90
2015,06,22,08,20,19.90
2015,06,22,08,21,19.90
2015,06,22,08,22,19.90
2015,06,22,08,23,19.80
2015,06,22,08,24,19.80
2015,06,22,08,25,19.80
2015,06,22,08,26,19.80
2015,06,22,08,27,19.90
2015,06,22,08,28,20.00
2015,06,22,08,29,20.10
2015,06,22,08,30,20.20
2015,06,22,08,31,20.30
2015,06,22,08,32,20.30
2015,06,22,08,33,20.50
2015,06,22,08,34,20.60
2015,06,22,08,35,20.60
2015,06,22,08,36,20.50
2015,06,22,08,37,20.50
2015,06,22,08,38,20.50
2015,06,22,08,39,20.60
2015,06,22,08,40,20.60
2015,06,22,08,41,20.70
2015,06,22,08,42,20.80
2015,06,22,08,43,20.80
2015,06,22,08,44,20.80
2015,06,22,08,45,20.80
2015,06,22,08,46,20.80
2015,06,22,08,47,20.80
2015,06,22,08,48,20.80
2015,06,22,08,49,20.70
2015,06,22,08,50,20.60
2015,06,22,08,51,20.50
2015,06,22,08,52,20.40
2015,06,22,08,53,20.30
2015,06,22,08,54,20.30
2015,06,22,08,55,20.10
2015,06,22,08,56,20.00
2015,06,22,08,57,19.90
2015,06,22,08,58,19.90
2015,06,22,08,59,19.90
2015,06,22,09,00,20.00
2015,06,22,09,01,20.10
2015,06,22,09,02,20.20
2015,06,22,09,03,20.30
2015,06,22,09,04,20.40
2015,06,22,09,05,20.40
2015,06,22,09,06,20.40
2015,06,22,09,07,20.40
2015,06,22,09,08,20.50
2015,06,22,09,09,20.50
2015,06,22,09,10,20.60
2015,06,22,09,11,20.80
2015,06,22,09,12,20.80
2015,06,22,09,13,21.00
2015,06,22,09,14,21.00
2015,06,22,09,15,21.00
2015,06,22,09,16,21.10
2015,06,22,09,17,21.10
2015,06,22,09,18,21.20
2015,06,22,09,19,21.30
2015,06,22,09,20,21.30
2015,06,22,09,21,21.50
2015,06,22,09,22,21.60
2015,06,22,09,23,21.70
2015,06,22,09,24,21.70
2015,06,22,09,25,21.70
2015,06,22,09,26,21.70
2015,06,22,09,27,21.80
2015,06,22,09,28,21.80
2015,06,22,09,29,21.80
2015,06,22,09,30,21.80
2015,06,22,09,31,21.90
2015,06,22,09,32,21.90
2015,06,22,09,33,22.10
2015,06,22,09,34,22.20
2015,06,22,09,35,22.30
2015,06,22,09,36,22.30
2015,06,22,09,37,22.20
2015,06,22,09,38,22.20
2015,06,22,09,39,22.20
2015,06,22,09,40,22.20
2015,06,22,09,41,22.10
2015,06,22,09,42,22.00
2015,06,22,09,43,22.00
2015,06,22,09,44,21.90
2015,06,22,09,45,21.90
2015,06,22,09,46,22.00
2015,06,22,09,47,22.10
2015,06,22,09,48,22.20
2015,06,22,09,49,22.20
2015,06,22,09,50,22.20
2015,06,22,09,51,22.30
2015,06,22,09,52,22.40
2015,06,22,09,53,22.40
2015,06,22,09,54,22.30
2015,06,22,09,55,22.30
2015,06,22,09,56,22.20
2015,06,22,09,57,22.00
2015,06,22,09,58,21.90
2015,06,22,09,59,21.80
2015,06,22,10,00,21.80
2015,06,22,10,01,21.70
2015,06,22,10,02,21.60
2015,06,22,10,03,21.50
2015,06,22,10,04,21.50
2015,06,22,10,05,21.50
2015,06,22,10,06,21.50
2015,06,22,10,07,21.50
2015,06,22,10,08,21.50
2015,06,22,10,09,21.40
2015,06,22,10,10,21.40
2015,06,22,10,11,21.50
2015,06,22,10,12,21.50
2015,06,22,10,13,21.40
2015,06,22,10,14,21.30
2015,06,22,10,15,21.30
2015,06,22,10,16,21.20
2015,06,22,10,17,21.30
2015,06,22,10,18,21.30
2015,06,22,10,19,21.40
2015,06,22,10,20,21.50
2015,06,22,10,21,21.50
2015,06,22,10,22,21.50
2015,06,22,10,23,21.50
2015,06,22,10,24,21.50
2015,06,22,10,25,21.40
2015,06,22,10,26,21.50
2015,06,22,10,27,21.50
2015,06,22,10,28,21.40
2015,06,22,10,29,21.30
2015,06,22,10,30,21.40
2015,06,22,10,31,21.50
2015,06,22,10,32,21.50
2015,06,22,10,33,21.50
2015,06,22,10,34,21.50
2015,06,22,10,35,21.50
2015,06,22,10,36,21.40
2015,06,22,10,37,21.40
2015,06,22,10,38,21.50
2015,06,22,10,39,21.50
2015,06,22,10,40,21.60
2015,06,22,10,41,21.60
2015,06,22,10,42,21.70
2015,06,22,10,43,21.70
2015,06,22,10,44,21.70
2015,06,22,10,45,21.70
2015,06,22,10,46,21.70
2015,06,22,10,47,21.60
2015,06,22,10,48,21.50
2015,06,22,10,49,21.50
2015,06,22,10,50,21.40
2015,06,22,10,51,21.40
2015,06,22,10,52,21.40
2015,06,22,10,53,21.40
2015,06,22,10,54,21.40
2015,06,22,10,55,21.50
2015,06,22,10,56,21.60
2015,06,22,10,57,21.70
2015,06,22,10,58,21.70
2015,06,22,10,59,21.70
2015,06,22,11,00,21.70
2015,06,22,11,01,21.70
2015,06,22,11,02,21.80
2015,06,22,11,03,21.80
2015,06,22,11,04,21.70
2015,06,22,11,05,21.60
2015,06,22,11,06,21.60
2015,06,22,11,07,21.70
2015,06,22,11,08,21.80
2015,06,22,11,09,21.80
2015,06,22,11,10,21.90
2015,06,22,11,11,22.00
2015,06,22,11,12,22.00
2015,06,22,11,13,21.90
2015,06,22,11,14,21.90
2015,06,22,11,15,21.90
2015,06,22,11,16,22.00
2015,06,22,11,17,21.90
2015,06,22,11,18,21.80
2015,06,22,11,19,21.70
2015,06,22,11,20,21.80
2015,06,22,11,21,21.80
2015,06,22,11,22,21.80
2015,06,22,11,23,21.90
2015,06,22,11,24,22.10
2015,06,22,11,25,22.20
2015,06,22,11,26,22.30
2015,06,22,11,27,22.40
2015,06,22,11,28,22.40
2015,06,22,11,29,22.40
2015,06,22,11,30,22.50
2015,06,22,11,31,22.50
2015,06,22,11,32,22.50
2015,06,22,11,33,22.60
2015,06,22,11,34,22.50
2015,06,22,11,35,22.40
2015,06,22,11,36,22.20
2015,06,22,11,37,22.10
2015,06,22,11,38,22.10
2015,06,22,11,39,22.10
2015,06,22,11,40,22.20
2015,06,22,11,41,22.30
2015,06,22,11,42,22.40
2015,06,22,11,43,22.60
2015,06,22,11,44,22.80
2015,06,22,11,45,22.90
2015,06,22,11,46,23.00
2015,06,22,11,47,23.10
2015,06,22,11,48,23.30
2015,06,22,11,49,23.30
2015,06,22,11,50,23.20
2015,06,22,11,51,23.10
2015,06,22,11,52,23.00
2015,06,22,11,53,22.90
2015,06,22,11,54,22.90
2015,06,22,11,55,22.70
2015,06,22,11,56,22.60
2015,06,22,11,57,22.60
2015,06,22,11,58,22.50
2015,06,22,11,59,22.40
2015,06,22,12,00,22.30
2015,06,22,12,01,22.30
2015,06,22,12,02,22.40
2015,06,22,12,03,22.60
2015,06,22,12,04,22.70
2015,06,22,12,05,22.70
2015,06,22,12,06,22.70
2015,06,22,12,07,22.80
2015,06,22,12,08,22.80
2015,06,22,12,09,22.70
2015,06,22,12,10,22.50
2015,06,22,12,11,22.40
2015,06,22,12,12,22.50
2015,06,22,12,13,22.60
2015,06,22,12,14,22.70
2015,06,22,12,15,22.80
2015,06,22,12,16,22.90
2015,06,22,12,17,22.90
2015,06,22,12,18,22.90
2015,06,22,12,19,22.90
2015,06,22,12,20,23.00
2015,06,22,12,21,23.00
2015,06,22,12,22,23.10
2015,06,22,12,23,23.10
2015,06,22,12,24,23.20
2015,06,22,12,25,23.20
2015,06,22,12,26,23.30
2015,06,22,12,27,23.20
2015,06,22,12,28,23.10
2015,06,22,12,29,23.00
2015,06,22,12,30,22.80
2015,06,22,12,31,22.70
2015,06,22,12,32,22.60
2015,06,22,12,33,22.50
2015,06,22,12,34,22.50
2015,06,22,12,35,22.50
2015,06,22,12,36,22.70
2015,06,22,12,37,22.80
2015,06,22,12,38,22.80
2015,06,22,12,39,22.70
2015,06,22,12,40,22.60
2015,06,22,12,41,22.50
2015,06,22,12,42,22.40
2015,06,22,12,43,22.50
2015,06,22,12,44,22.60
2015,06,22,12,45,22.70
2015,06,22,12,46,22.80
2015,06,22,12,47,22.90
2015,06,22,12,48,23.10
2015,06,22,12,49,23.20
2015,06,22,12,50,23.30
2015,06,22,12,51,23.50
2015,06,22,12,52,23.60
2015,06,22,12,53,23.60
2015,06,22,12,54,23.60
2015,06,22,12,55,23.40
2015,06,22,12,56,23.20
2015,06,22,12,57,23.30
2015,06,22,12,58,23.40
2015,06,22,12,59,23.40
2015,06,22,13,00,23.40
2015,06,22,13,01,23.50
2015,06,22,13,02,23.60
2015,06,22,13,03,23.60
2015,06,22,13,04,23.60
2015,06,22,13,05,23.50
2015,06,22,13,06,23.40
2015,06,22,13,07,23.30
2015,06,22,13,08,23.40
2015,06,22,13,09,23.40
2015,06,22,13,10,23.30
2015,06,22,13,11,23.20
2015,06,22,13,12,23.10
2015,06,22,13,13,23.00
2015,06,22,13,14,22.90
2015,06,22,13,15,22.90
2015,06,22,13,16,22.90
2015,06,22,13,17,23.00
2015,06,22,13,18,23.00
2015,06,22,13,19,23.00
2015,06,22,13,20,23.00
2015,06,22,13,21,23.10
2015,06,22,13,22,23.10
2015,06,22,13,23,23.00
2015,06,22,13,24,22.80
2015,06,22,13,25,22.70
2015,06,22,13,26,22.70
2015,06,22,13,27,22.70
2015,06,22,13,28,22.70
2015,06,22,13,29,22.80
2015,06,22,13,30,22.90
2015,06,22,13,31,22.90
2015,06,22,13,32,23.00
2015,06,22,13,33,22.90
2015,06,22,13,34,22.90
2015,06,22,13,35,22.90
2015,06,22,13,36,22.80
2015,06,22,13,37,22.80
2015,06,22,13,38,22.90
2015,06,22,13,39,23.00
2015,06,22,13,40,23.00
2015,06,22,13,41,23.10
2015,06,22,13,42,23.20
2015,06,22,13,43,23.20
2015,06,22,13,44,23.10
2015,06,22,13,45,23.10
2015,06,22,13,46,23.10
2015,06,22,13,47,23.10
2015,06,22,13,48,23.10
2015,06,22,13,49,23.20
2015,06,22,13,50,23.20
2015,06,22,13,51,23.20
2015,06,22,13,52,23.20
2015,06,22,13,53,23.20
2015,06,22,13,54,23.20
2015,06,22,13,55,23.20
2015,06,22,13,56,23.20
2015,06,22,13,57,23.20
2015,06,22,13,58,23.30
2015,06,22,13,59,23.30
2015,06,22,14,00,23.40
2015,06,22,14,01,23.40
2015,06,22,14,02,23.50
2015,06,22,14,03,23.40
2015,06,22,14,04,23.30
2015,06,22,14,05,23.30
2015,06,22,14,06,23.20
2015,06,22,14,07,23.10
2015,06,22,14,08,23.10
2015,06,22,14,09,23.20
2015,06,22,14,10,23.40
2015,06,22,14,11,23.50
2015,06,22,14,12,23.60
2015,06,22,14,13,23.70
2015,06,22,14,14,23.80
2015,06,22,14,15,23.80
2015,06,22,14,16,23.80
2015,06,22,14,17,23.90
2015,06,22,14,18,24.00
2015,06,22,14,19,24.10
2015,06,22,14,20,24.20
2015,06,22,14,21,24.20
2015,06,22,14,22,24.10
2015,06,22,14,23,24.00
2015,06,22,14,24,23.80
2015,06,22,14,25,23.80
2015,06,22,14,26,23.80
2015,06,22,14,27,23.80
2015,06,22,14,28,23.70
2015,06,22,14,29,23.60
2015,06,22,14,30,23.60
2015,06,22,14,31,23.60
2015,06,22,14,32,23.60
2015,06,22,14,33,23.60
2015,06,22,14,34,23.70
2015,06,22,14,35,23.80
2015,06,22,14,36,23.80
2015,06,22,14,37,23.90
2015,06,22,14,38,24.00
2015,06,22,14,39,24.10
2015,06,22,14,40,24.00
2015,06,22,14,41,23.80
2015,06,22,14,42,23.70
2015,06,22,14,43,23.60
2015,06,22,14,44,23.60
2015,06,22,14,45,23.60
2015,06,22,14,46,23.60
2015,06,22,14,47,23.60
2015,06,22,14,48,23.60
2015,06,22,14,49,23.70
2015,06,22,14,50,23.80
2015,06,22,14,51,23.90
2015,06,22,14,52,24.00
2015,06,22,14,53,24.00
2015,06,22,14,54,24.10
2015,06,22,14,55,24.20
2015,06,22,14,56,24.30
2015,06,22,14,57,24.30
2015,06,22,14,58,24.30
2015,06,22,14,59,24.20
2015,06,22,15,00,24.10
2015,06,22,15,01,24.00
2015,06,22,15,02,24.00
2015,06,22,15,03,23.90
2015,06,22,15,04,23.90
2015,06,22,15,05,24.00
2015,06,22,15,06,24.20
2015,06,22,15,07,24.30
2015,06,22,15,08,24.40
2015,06,22,15,09,24.40
2015,06,22,15,10,24.30
2015,06,22,15,11,24.20
2015,06,22,15,12,24.20
2015,06,22,15,13,24.30
2015,06,22,15,14,24.40
2015,06,22,15,15,24.50
2015,06,22,15,16,24.50
2015,06,22,15,17,24.60
2015,06,22,15,18,24.60
2015,06,22,15,19,24.70
2015,06,22,15,20,24.90
2015,06,22,15,21,25.00
2015,06,22,15,22,25.10
2015,06,22,15,23,25.20
2015,06,22,15,24,25.20
2015,06,22,15,25,25.10
2015,06,22,15,26,25.10
2015,06,22,15,27,25.10
2015,06,22,15,28,25.00
2015,06,22,15,29,25.00
2015,06,22,15,30,25.00
2015,06,22,15,31,25.10
2015,06,22,15,32,25.10
2015,06,22,15,33,25.10
2015,06,22,15,34,25.10
2015,06,22,15,35,25.10
2015,06,22,15,36,25.10
2015,06,22,15,37,25.20
2015,06,22,15,38,25.20
2015,06,22,15,39,25.20
2015,06,22,15,40,25.30
2015,06,22,15,41,25.30
2015,06,22,15,42,25.30
2015,06,22,15,43,25.30
2015,06,22,15,44,25.40
2015,06,22,15,45,25.40
2015,06,22,15,46,25.40
2015,06,22,15,47,25.50
2015,06,22,15,48,25.50
2015,06,22,15,49,25.60
2015,06,22,15,50,25.60
2015,06,22,15,51,25.70
2015,06,22,15,52,25.70
2015,06,22,15,53,25.80
2015,06,22,15,54,25.80
2015,06,22,15,55,25.90
2015,06,22,15,56,26.00
2015,06,22,15,57,26.10
2015,06,22,15,58,26.20
2015,06,22,15,59,26.20
2015,06,22,16,00,26.30
2015,06,22,16,01,26.40
2015,06,22,16,02,26.50
2015,06,22,16,03,26.60
2015,06,22,16,04,26.70
2015,06,22,16,05,26.70
2015,06,22,16,06,26.60
2015,06,22,16,07,26.50
2015,06,22,16,08,26.50
2015,06,22,16,09,26.50
2015,06,22,16,10,26.30
2015,06,22,16,11,26.20
2015,06,22,16,12,26.20
2015,06,22,16,13,26.20
2015,06,22,16,14,26.20
2015,06,22,16,15,26.10
2015,06,22,16,16,26.10
2015,06,22,16,17,26.00
2015,06,22,16,18,25.90
2015,06,22,16,19,26.10
2015,06,22,16,20,26.20
2015,06,22,16,21,26.40
2015,06,22,16,22,26.40
2015,06,22,16,23,26.30
2015,06,22,16,24,26.20
2015,06,22,16,25,26.20
2015,06,22,16,26,26.20
2015,06,22,16,27,26.10
2015,06,22,16,28,26.20
2015,06,22,16,29,26.30
2015,06,22,16,30,26.30
2015,06,22,16,31,26.30
2015,06,22,16,32,26.30
2015,06,22,16,33,26.30
2015,06,22,16,34,26.30
2015,06,22,16,35,26.30
2015,06,22,16,36,26.40
2015,06,22,16,37,26.50
2015,06,22,16,38,26.50
2015,06,22,16,39,26.40
2015,06,22,16,40,26.20
2015,06,22,16,41,26.10
2015,06,22,16,42,26.00
2015,06,22,16,43,26.00
2015,06,22,16,44,26.00
2015,06,22,16,45,26.00
2015,06,22,16,46,25.90
2015,06,22,16,47,25.90
2015,06,22,16,48,25.90
2015,06,22,16,49,26.00
2015,06,22,16,50,25.90
2015,06,22,16,51,25.90
2015,06,22,16,52,25.90
2015,06,22,16,53,26.00
2015,06,22,16,54,26.10
2015,06,22,16,55,26.10
2015,06,22,16,56,26.20
2015,06,22,16,57,26.30
2015,06,22,16,58,26.40
2015,06,22,16,59,26.40
2015,06,22,17,00,26.30
2015,06,22,17,01,26.10
2015,06,22,17,02,25.90
2015,06,22,17,03,25.70
2015,06,22,17,04,25.50
2015,06,22,17,05,25.30
2015,06,22,17,06,25.20
2015,06,22,17,07,25.10
2015,06,22,17,08,24.90
2015,06,22,17,09,24.90
2015,06,22,17,10,24.80
2015,06,22,17,11,24.70
2015,06,22,17,12,24.60
2015,06,22,17,13,24.60
2015,06,22,17,14,24.50
2015,06,22,17,15,24.60
2015,06,22,17,16,24.60
2015,06,22,17,17,24.70
2015,06,22,17,18,24.80
2015,06,22,17,19,24.90
2015,06,22,17,20,24.90
2015,06,22,17,21,25.00
2015,06,22,17,22,25.00
2015,06,22,17,23,24.90
2015,06,22,17,24,24.90
2015,06,22,17,25,24.90
2015,06,22,17,26,24.80
2015,06,22,17,27,24.70
2015,06,22,17,28,24.70
2015,06,22,17,29,24.60
2015,06,22,17,30,24.40
2015,06,22,17,31,24.30
2015,06,22,17,32,24.10
2015,06,22,17,33,24.00
2015,06,22,17,34,23.80
2015,06,22,17,35,23.70
2015,06,22,17,36,23.60
2015,06,22,17,37,23.50
2015,06,22,17,38,23.40
2015,06,22,17,39,23.40
2015,06,22,17,40,23.40
2015,06,22,17,41,23.40
2015,06,22,17,42,23.40
2015,06,22,17,43,23.50
2015,06,22,17,44,23.60
2015,06,22,17,45,23.60
2015,06,22,17,46,23.50
2015,06,22,17,47,23.50
2015,06,22,17,48,23.40
2015,06,22,17,49,23.40
2015,06,22,17,50,23.30
2015,06,22,17,51,23.20
2015,06,22,17,52,23.20
2015,06,22,17,53,23.20
2015,06,22,17,54,23.30
2015,06,22,17,55,23.30
2015,06,22,17,56,23.40
2015,06,22,17,57,23.40
2015,06,22,17,58,23.50
2015,06,22,17,59,23.50
2015,06,22,18,00,23.60
2015,06,22,18,01,23.60
2015,06,22,18,02,23.70
2015,06,22,18,03,23.70
2015,06,22,18,04,23.60
2015,06,22,18,05,23.60
2015,06,22,18,06,23.70
2015,06,22,18,07,23.60
2015,06,22,18,08,23.50
2015,06,22,18,09,23.40
2015,06,22,18,10,23.30
2015,06,22,18,11,23.30
2015,06,22,18,12,23.20
2015,06,22,18,13,23.30
2015,06,22,18,14,23.30
2015,06,22,18,15,23.40
2015,06,22,18,16,23.40
2015,06,22,18,17,23.50
2015,06,22,18,18,23.60
2015,06,22,18,19,23.60
2015,06,22,18,20,23.60
2015,06,22,18,21,23.60
2015,06,22,18,22,23.60
2015,06,22,18,23,23.60
2015,06,22,18,24,23.60
2015,06,22,18,25,23.70
2015,06,22,18,26,23.70
2015,06,22,18,27,23.80
2015,06,22,18,28,23.90
2015,06,22,18,29,24.00
2015,06,22,18,30,24.10
2015,06,22,18,31,24.20
2015,06,22,18,32,24.20
2015,06,22,18,33,24.20
2015,06,22,18,34,24.10
2015,06,22,18,35,24.10
2015,06,22,18,36,24.10
2015,06,22,18,37,24.00
2015,06,22,18,38,24.00
2015,06,22,18,39,23.90
2015,06,22,18,40,23.90
2015,06,22,18,41,23.80
2015,06,22,18,42,23.80
2015,06,22,18,43,23.70
2015,06,22,18,44,23.70
2015,06,22,18,45,23.70
2015,06,22,18,46,23.70
2015,06,22,18,47,23.70
2015,06,22,18,48,23.70
2015,06,22,18,49,23.70
2015,06,22,18,50,23.70
2015,06,22,18,51,23.70
2015,06,22,18,52,23.80
2015,06,22,18,53,23.80
2015,06,22,18,54,23.80
2015,06,22,18,55,23.90
2015,06,22,18,56,23.90
2015,06,22,18,57,23.90
2015,06,22,18,58,23.90
2015,06,22,18,59,23.90
2015,06,22,19,00,23.90
2015,06,22,19,01,23.90
2015,06,22,19,02,23.90
2015,06,22,19,03,23.90
2015,06,22,19,04,23.90
2015,06,22,19,05,24.00
2015,06,22,19,06,24.00
2015,06,22,19,07,24.00
2015,06,22,19,08,24.00
2015,06,22,19,09,24.00
2015,06,22,19,10,24.00
2015,06,22,19,11,23.90
2015,06,22,19,12,23.90
2015,06,22,19,13,24.00
2015,06,22,19,14,24.00
2015,06,22,19,15,24.00
2015,06,22,19,16,23.90
2015,06,22,19,17,23.90
2015,06,22,19,18,23.90
2015,06,22,19,19,23.90